カタログに戻る

COSMOS 1275 DEB

運用中PO
NORAD 13017·DEBRIS·🇷🇺 Russia

打ち上げ Jun 4, 1981 から Plesetsk Cosmodrome

Loading…

次のパス (今後24時間)

TLE

最新Source: Space-Track

元期: Sep 14, 2026, 09:37 UTC

1 13017U 81053EP  26257.40117698  .00000801  00000-0  52276-3 0  9991
2 13017  82.9283 225.2372 0029817 321.7870 198.6290 14.01020699269435

AllMySatでCOSMOS 1275 DEBをリアルタイム追跡

Download on the App Store